This is the latest recevied weather packets stored in our database for station/object IZ2MHJ-3. If no packets are shown the sender has not sent any weather packets the latest 10 day(s).
| Time | Temp. | Humidity | Pressure | Rain* | Wind** | Luminosity | Snow |
|---|---|---|---|---|---|---|---|
| 1777164563 | 15° C | 63% | 1017.5 hPa | - | - | - | - |
| 1777163363 | 15.56° C | 64% | 1017.4 hPa | - | - | - | - |
| 1777162163 | 15.56° C | 65% | 1017.3 hPa | - | - | - | - |
| 1777160962 | 16.11° C | 64% | 1017.3 hPa | - | - | - | - |
| 1777159762 | 16.11° C | 63% | 1017.1 hPa | - | - | - | - |
| 1777158562 | 16.67° C | 61% | 1017 hPa | - | - | - | - |
| 1777157361 | 17.22° C | 61% | 1017 hPa | - | - | - | - |
| 1777156161 | 17.22° C | 59% | 1017 hPa | - | - | - | - |
| 1777154961 | 17.78° C | 56% | 1016.9 hPa | - | - | - | - |
| 1777153761 | 17.78° C | 58% | 1016.9 hPa | - | - | - | - |
| 1777152560 | 18.33° C | 60% | 1016.8 hPa | - | - | - | - |
| 1777151360 | 19.44° C | 55% | 1016.7 hPa | - | - | - | - |
| 1777150159 | 20° C | 51% | 1016.4 hPa | - | - | - | - |
| 1777148959 | 20° C | 49% | 1016.1 hPa | - | - | - | - |
| 1777147759 | 20° C | 48% | 1016.1 hPa | - | - | - | - |
| 1777146559 | 21.11° C | 47% | 1016 hPa | - | - | - | - |
| 1777145358 | 21.67° C | 43% | 1015.6 hPa | - | - | - | - |
| 1777144158 | 22.22° C | 39% | 1015.2 hPa | - | - | - | - |
| 1777142957 | 22.22° C | 38% | 1015 hPa | - | - | - | - |
| 1777141757 | 22.78° C | 39% | 1014.7 hPa | - | - | - | - |
| 1777140557 | 23.33° C | 37% | 1014.5 hPa | - | - | - | - |
| 1777139357 | 25.56° C | 34% | 1014.2 hPa | - | - | - | - |
| 1777138156 | 26.67° C | 33% | 1014 hPa | - | - | - | - |
| 1777136956 | 25.56° C | 32% | 1014.2 hPa | - | - | - | - |
| 1777135756 | 26.11° C | 31% | 1014.2 hPa | - | - | - | - |
* Rain since midnight (hover to see other rain measurements)
** Current wind speed in m/s (hover to see current wind gust speed)